Location: Dzierzno
(50.6159°N, 19.2852°E)
Time: 01:35:05
(UTC+00:00)

Cosmos 1656 Rocket - Pass Details

Date: 18 November 2025
Orbit: 791 x 846 km, 71.1° (Epoch: 04 December)

Event Time Altitude Azimuth Distance (km) Brightness Sun altitude
Rises 18:01:03 0° 212° (SSW) 3,337 7.1 -29.5°
Reaches altitude 10° 18:03:27 10° 214° (SW) 2,416 6.4 -29.9°
Enters shadow 18:07:59 59° 235° (SW) 954 4.0 -30.6°
